CW0214 Weather Reports


time (UTC)temp
C
wind
direction
speed
KPH
gust
KPH
rain 1hr
cm
rain 24hr
cm
rain mn
cm
humidity
%
barometer
mb
20260506033404 11 136 0.0 0.0 0.00 0.00 0.00 86 1014.9
20260506032904 11 136 0.0 0.0 0.00 0.00 0.00 86 1015.0
20260506032404 11 136 0.0 3.2 0.00 0.00 0.00 85 1015.1
20260506031904 11 136 0.0 4.8 0.00 0.00 0.00 85 1015.1
20260506030905 11 136 1.6 8.0 0.00 0.00 0.00 85 1015.2
20260506030405 11 136 0.0 1.6 0.00 0.00 0.00 85 1015.2
20260506025905 11 136 0.0 0.0 0.00 0.00 0.00 85 1015.2
20260506025404 11 136 0.0 0.0 0.00 0.00 0.00 85 1015.2
20260506024905 11 136 0.0 0.0 0.00 0.00 0.00 85 1015.2
20260506024405 11 136 0.0 0.0 0.00 0.00 0.00 84 1015.2
20260506022905 11 136 1.6 8.0 0.00 0.00 0.00 84 1015.3
20260506022404 11 173 3.2 8.0 0.00 0.00 0.00 84 1015.4
20260506020904 12 346 1.6 3.2 0.00 0.00 0.00 84 1015.4
20260506020404 12 139 0.0 4.8 0.00 0.00 0.00 84 1015.3
20260506015904 11 87 0.0 8.0 0.00 0.00 0.00 84 1015.4
20260506015404 11 140 1.6 8.0 0.00 0.00 0.00 84 1015.5
20260506014904 11 145 4.8 9.7 0.00 0.00 0.00 84 1015.6
20260506014405 11 76 0.0 0.0 0.00 0.00 0.00 84 1015.7
20260506013904 11 76 0.0 0.0 0.00 0.00 0.00 84 1015.7
20260506013404 11 76 0.0 0.0 0.00 0.00 0.00 84 1015.7
20260506012904 11 76 0.0 0.0 0.00 0.00 0.00 84 1015.7
20260506012404 11 76 0.0 0.0 0.00 0.00 0.00 83 1015.7
20260506011905 11 76 0.0 0.0 0.00 0.00 0.00 83 1015.7
20260506011404 11 76 0.0 3.2 0.00 0.00 0.00 83 1015.6
20260506010905 12 77 1.6 9.7 0.00 0.00 0.00 83 1015.7
20260506010405 12 46 0.0 1.6 0.00 0.00 0.00 83 1015.8
20260506005404 12 46 6.4 11.3 0.00 0.00 0.00 83 1015.8
20260506004905 12 46 4.8 9.7 0.00 0.00 0.00 83 1015.8
20260506003905 12 30 1.6 9.7 0.00 0.00 0.00 83 1016.1
20260506003404 12 294 0.0 1.6 0.00 0.00 0.00 83 1016.2
20260506002405 12 303 1.6 4.8 0.00 0.00 0.00 83 1016.4
20260506001904 12 78 0.0 9.7 0.00 0.00 0.00 83 1016.5
20260506001404 12 340 1.6 8.0 0.00 0.00 0.00 84 1016.6
20260506000405 12 86 3.2 11.3 0.00 0.00 0.00 83 1016.7
20260505235905 12 87 0.0 8.0 0.00 0.00 0.00 84 1016.8
20260505235404 12 103 0.0 8.0 0.00 0.00 0.00 84 1016.9
20260505234404 12 103 0.0 9.7 0.00 0.00 0.00 83 1016.9
20260505233905 12 66 1.6 9.7 0.00 0.00 0.00 83 1016.9
20260505233405 12 89 3.2 12.9 0.00 0.00 0.00 83 1016.9
20260505232905 12 51 0.0 3.2 0.00 0.00 0.00 83 1016.9
20260505232404 12 34 1.6 11.3 0.00 0.00 0.00 83 1016.9
20260505231905 12 344 3.2 14.5 0.00 0.00 0.00 83 1016.9
20260505231405 12 41 3.2 11.3 0.00 0.00 0.00 83 1017.0
20260505230904 12 114 8.0 19.3 0.00 0.00 0.00 83 1017.0
20260505230404 12 127 3.2 8.0 0.00 0.00 0.00 83 1017.0
20260505225905 12 75 1.6 4.8 0.00 0.00 0.00 83 1017.2
20260505225404 12 76 3.2 12.9 0.00 0.00 0.00 83 1017.3
20260505224905 12 74 0.0 3.2 0.00 0.00 0.00 83 1017.3
20260505224404 12 130 1.6 9.7 0.00 0.00 0.00 82 1017.4
20260505223904 12 68 1.6 11.3 0.00 0.00 0.00 82 1017.5
20260505223407 12 71 1.6 8.0 0.00 0.00 0.00 82 1017.5
20260505222904 13 88 1.6 9.7 0.00 0.00 0.00 81 1017.6
20260505222404 13 26 0.0 3.2 0.00 0.00 0.00 81 1017.7
20260505221404 13 43 1.6 4.8 0.00 0.00 0.00 81 1017.6
20260505220904 13 43 0.0 8.0 0.00 0.00 0.00 80 1017.7
20260505220404 13 57 0.0 0.0 0.00 0.00 0.00 80 1017.7
20260505215905 13 74 1.6 8.0 0.00 0.00 0.00 80 1017.7
20260505215404 13 31 0.0 1.6 0.00 0.00 0.00 79 1017.6
20260505214904 13 28 3.2 8.0 0.00 0.00 0.00 79 1017.6
20260505214405 13 0 1.6 9.7 0.00 0.00 0.00 79 1017.7
20260505213904 13 357 3.2 9.7 0.00 0.00 0.00 78 1017.7
20260505213405 13 178 3.2 20.9 0.00 0.00 0.00 78 1017.7
20260505212905 13 138 3.2 11.3 0.00 0.00 0.00 77 1017.7
20260505212404 13 188 3.2 12.9 0.00 0.00 0.00 77 1017.7
20260505211905 13 67 1.6 9.7 0.00 0.00 0.00 76 1017.7
20260505211405 13 88 1.6 8.0 0.00 0.00 0.00 76 1017.7
20260505210904 13 33 1.6 14.5 0.00 0.00 0.00 75 1017.7
20260505210404 13 41 1.6 9.7 0.00 0.00 0.00 75 1017.7
20260505205905 13 49 3.2 14.5 0.00 0.00 0.00 74 1017.6
20260505205404 14 60 1.6 8.0 0.00 0.00 0.00 73 1017.7
20260505204904 14 43 0.0 11.3 0.00 0.00 0.00 73 1017.6
20260505204404 14 38 4.8 11.3 0.00 0.00 0.00 73 1017.5
20260505203904 14 66 4.8 14.5 0.00 0.00 0.00 72 1017.5
20260505203404 14 76 1.6 19.3 0.00 0.00 0.00 71 1017.5
20260505202904 14 86 6.4 16.1 0.00 0.00 0.00 71 1017.5
20260505201904 15 77 3.2 12.9 0.00 0.00 0.00 70 1017.4
20260505201404 15 43 3.2 12.9 0.00 0.00 0.00 69 1017.4
20260505200905 15 150 3.2 12.9 0.00 0.00 0.00 69 1017.3
20260505200404 15 80 3.2 19.3 0.00 0.00 0.00 68 1017.3
20260505195904 15 51 4.8 19.3 0.00 0.00 0.00 68 1017.3
20260505194904 15 247 3.2 9.7 0.00 0.00 0.00 67 1017.1
20260505193904 15 85 9.7 19.3 0.00 0.00 0.00 66 1016.9
20260505193404 15 132 4.8 24.1 0.00 0.00 0.00 66 1016.9
20260505192405 16 90 4.8 12.9 0.00 0.00 0.00 64 1016.8
20260505191906 16 103 3.2 11.3 0.00 0.00 0.00 64 1016.7
20260505191405 16 81 3.2 11.3 0.00 0.00 0.00 63 1016.7
20260505190905 16 102 4.8 19.3 0.00 0.00 0.00 63 1016.7
20260505190405 16 90 8.0 16.1 0.00 0.00 0.00 62 1016.7
20260505185905 16 104 9.7 25.7 0.00 0.00 0.00 62 1016.8
20260505185406 16 159 9.7 19.3 0.00 0.00 0.00 61 1016.7
20260505184905 17 122 8.0 16.1 0.00 0.00 0.00 61 1016.7
20260505184405 17 134 8.0 19.3 0.00 0.00 0.00 60 1016.6
20260505183905 17 119 6.4 19.3 0.00 0.00 0.00 59 1016.5
20260505183405 17 159 6.4 16.1 0.00 0.00 0.00 58 1016.5
20260505182905 17 141 8.0 19.3 0.00 0.00 0.00 57 1016.4
20260505182405 17 128 6.4 19.3 0.00 0.00 0.00 56 1016.3
20260505181905 18 41 3.2 12.9 0.00 0.00 0.00 56 1016.3
20260505181405 18 47 1.6 9.7 0.00 0.00 0.00 57 1016.2
20260505180405 18 58 4.8 14.5 0.00 0.00 0.00 55 1016.3
20260505175905 18 79 3.2 14.5 0.00 0.00 0.00 56 1016.2
20260505175405 18 93 4.8 16.1 0.00 0.00 0.00 56 1016.3
20260505174905 18 129 6.4 19.3 0.00 0.00 0.00 55 1016.2
20260505174405 18 116 6.4 14.5 0.00 0.00 0.00 56 1016.2
20260505173905 18 87 4.8 20.9 0.00 0.00 0.00 56 1016.1
20260505173406 18 152 3.2 19.3 0.00 0.00 0.00 55 1016.2
20260505172905 18 97 4.8 32.2 0.00 0.00 0.00 54 1016.2
20260505172405 19 105 4.8 22.5 0.00 0.00 0.00 53 1016.2
20260505171905 19 131 9.7 19.3 0.00 0.00 0.00 53 1016.3
20260505165905 19 63 1.6 19.3 0.00 0.00 0.00 54 1016.2
20260505165405 19 106 8.0 19.3 0.00 0.00 0.00 54 1016.2
20260505164905 19 50 3.2 14.5 0.00 0.00 0.00 54 1016.2
20260505163905 19 131 3.2 12.9 0.00 0.00 0.00 53 1016.1
20260505163405 19 128 4.8 14.5 0.00 0.00 0.00 53 1016.2
20260505162405 19 98 1.6 16.1 0.00 0.00 0.00 53 1016.1
20260505161906 19 214 3.2 14.5 0.00 0.00 0.00 54 1016.1
20260505161405 19 67 4.8 14.5 0.00 0.00 0.00 54 1016.1
20260505160905 19 46 0.0 14.5 0.00 0.00 0.00 53 1016.2
20260505160406 20 121 4.8 16.1 0.00 0.00 0.00 53 1016.2
20260505152905 20 151 3.2 12.9 0.00 0.00 0.00 49 1016.4
20260505152405 20 177 4.8 12.9 0.00 0.00 0.00 48 1016.6
20260505151405 20 119 3.2 19.3 0.00 0.00 0.00 49 1016.5
20260505150905 20 140 9.7 22.5 0.00 0.00 0.00 50 1016.6
20260505150405 20 135 8.0 16.1 0.00 0.00 0.00 50 1016.6
20260505140405 19 56 0.0 20.9 0.00 0.00 0.00 53 1017.1
20260505124905 19 75 1.6 9.7 0.00 0.00 0.00 53 1017.6
20260505124405 19 121 8.0 14.5 0.00 0.00 0.00 50 1017.5
20260505123905 19 135 1.6 11.3 0.00 0.00 0.00 53 1017.6
20260505123405 18 136 4.8 16.1 0.00 0.00 0.00 54 1017.7
20260505122905 18 123 0.0 11.3 0.00 0.00 0.00 56 1017.7
20260505122405 18 58 1.6 11.3 0.00 0.00 0.00 54 1017.7
20260505121905 17 141 1.6 16.1 0.00 0.00 0.00 56 1017.8
20260505121405 17 87 0.0 8.0 0.00 0.00 0.00 57 1017.9
20260505120905 17 174 1.6 12.9 0.00 0.00 0.00 56 1017.9
20260505120405 17 232 4.8 19.3 0.00 0.00 0.00 54 1017.8
20260505115905 17 54 0.0 12.9 0.00 0.00 0.00 55 1017.9
20260505115405 17 131 1.6 14.5 0.00 0.00 0.00 55 1017.9
20260505114905 17 82 3.2 14.5 0.00 0.00 0.00 54 1018.0
20260505114406 17 95 8.0 24.1 0.00 0.00 0.00 53 1017.9
20260505113905 18 72 6.4 19.3 0.00 0.00 0.00 54 1018.0
20260505113405 18 112 3.2 12.9 0.00 0.00 0.00 55 1018.0
20260505112405 18 211 8.0 19.3 0.00 0.00 0.00 52 1018.0
20260505111905 18 246 9.7 22.5 0.00 0.00 0.00 50 1018.0
20260505111405 18 166 3.2 12.9 0.00 0.00 0.00 52 1018.0
20260505110904 17 220 3.2 12.9 0.00 0.00 0.00 53 1018.0
20260505110405 18 105 4.8 12.9 0.00 0.00 0.00 54 1018.1
20260505101905 17 148 1.6 11.3 0.00 0.00 0.00 57 1018.0
20260505101405 17 114 1.6 16.1 0.00 0.00 0.00 56 1018.1
20260505100906 17 144 6.4 20.9 0.00 0.00 0.00 57 1018.1
20260505100405 17 223 4.8 11.3 0.00 0.00 0.00 59 1018.0
20260505095905 16 165 3.2 12.9 0.00 0.00 0.00 62 1018.1
20260505094905 16 61 0.0 11.3 0.00 0.00 0.00 62 1018.1
20260505094405 16 281 0.0 8.0 0.00 0.00 0.00 62 1018.1
20260505093905 16 66 0.0 11.3 0.00 0.00 0.00 64 1018.1
20260505092907 16 135 6.4 16.1 0.00 0.00 0.00 62 1018.1
20260505092405 17 132 1.6 19.3 0.00 0.00 0.00 62 1018.0
20260505091905 16 263 0.0 19.3 0.00 0.00 0.00 61 1018.0
20260505091405 16 151 1.6 11.3 0.00 0.00 0.00 60 1018.1
20260505090905 16 320 1.6 9.7 0.00 0.00 0.00 62 1018.0
20260505090405 16 230 1.6 14.5 0.00 0.00 0.00 66 1018.1
20260505085905 15 304 1.6 4.8 0.00 0.00 0.00 70 1018.1
20260505085405 15 237 0.0 8.0 0.00 0.00 0.00 73 1018.1
20260505084905 15 142 0.0 9.7 0.00 0.00 0.00 74 1018.2
20260505084405 15 148 1.6 11.3 0.00 0.00 0.00 75 1018.2
20260505083905 15 125 1.6 12.9 0.00 0.00 0.00 74 1018.2
20260505082905 15 108 1.6 8.0 0.00 0.03 0.00 77 1018.1
20260505082405 15 103 1.6 11.3 0.00 0.03 0.00 77 1018.2
20260505081905 14 96 3.2 8.0 0.00 0.03 0.00 78 1018.1
20260505081405 14 125 1.6 8.0 0.00 0.03 0.00 80 1018.1
20260505080405 13 40 3.2 8.0 0.00 0.03 0.00 81 1018.1
20260505075905 13 51 3.2 11.3 0.00 0.03 0.00 81 1018.1
20260505075405 13 105 4.8 11.3 0.00 0.03 0.00 83 1018.1
20260505074905 12 130 1.6 9.7 0.00 0.03 0.00 83 1018.1
20260505074405 12 106 4.8 11.3 0.00 0.03 0.00 84 1018.0
20260505073905 12 97 4.8 12.9 0.00 0.03 0.00 85 1018.1
20260505073406 12 98 8.0 11.3 0.00 0.03 0.00 85 1018.0
20260505072905 12 100 4.8 12.9 0.00 0.03 0.00 85 1018.0
20260505071905 11 128 0.0 9.7 0.00 0.03 0.00 87 1017.9
20260505070905 11 94 1.6 4.8 0.00 0.03 0.00 89 1017.9
20260505070405 11 92 0.0 4.8 0.00 0.03 0.00 90 1017.9
20260505065905 10 92 1.6 8.0 0.00 0.03 0.00 90 1017.8
20260505064905 10 30 1.6 4.8 0.00 0.03 0.00 90 1017.7
20260505064405 10 30 0.0 4.8 0.00 0.03 0.00 91 1017.8
20260505063905 10 30 0.0 0.0 0.00 0.03 0.00 91 1017.7
20260505063405 10 30 0.0 4.8 0.00 0.03 0.00 92 1017.7
20260505062905 10 30 0.0 0.0 0.00 0.03 0.00 92 1017.7
20260505062406 10 30 0.0 0.0 0.00 0.03 0.00 92 1017.6
20260505061905 10 30 0.0 3.2 0.00 0.03 0.00 93 1017.6
20260505061405 9 30 0.0 4.8 0.00 0.03 0.00 93 1017.6
20260505060905 9 30 0.0 3.2 0.00 0.03 0.00 93 1017.5
20260505060405 9 30 0.0 1.6 0.00 0.03 0.00 92 1017.4
20260505055905 9 30 0.0 0.0 0.00 0.03 0.00 92 1017.4
20260505055405 9 30 0.0 3.2 0.00 0.03 0.00 92 1017.3
20260505054905 9 30 3.2 8.0 0.00 0.03 0.00 92 1017.3
20260505053905 9 30 0.0 1.6 0.00 0.03 0.00 92 1017.4
20260505053405 9 30 0.0 0.0 0.00 0.03 0.00 92 1017.3
20260505052905 9 30 0.0 0.0 0.00 0.03 0.00 92 1017.3
20260505052405 9 30 0.0 0.0 0.00 0.03 0.00 92 1017.3
20260505051905 9 30 0.0 0.0 0.00 0.03 0.00 92 1017.2
20260505050905 9 30 1.6 4.8 0.00 0.03 0.00 92 1017.1
20260505050405 9 30 0.0 8.0 0.00 0.03 0.00 91 1017.1
20260505041404 10 30 0.0 0.0 0.00 0.03 0.00 91 1017.3
20260505040905 10 30 0.0 0.0 0.00 0.03 0.00 91 1017.4
20260505040404 9 30 0.0 0.0 0.00 0.03 0.00 90 1017.3
20260505035905 10 30 0.0 0.0 0.00 0.03 0.00 90 1017.4
20260505034905 10 30 0.0 0.0 0.00 0.03 0.00 90 1017.4